Temperature
19 20 21 21 21 20 20 20 20 20 20 21 20 20 20 21 21 21 22 22 23 23 23 23 23 23 23 22 22 22 22 22 21 21 21 21 21 20 20 20 20 19 19 19
20 20 21 21 21 21 21 20 20 21 20 19 20 20 20 20 20 20 21 22 22 22 23 23 23 23 22 22 22 22 22 22 21 21 21 21 20 20 20 20 19 19 19 19
18 19 20 20 20 21 20 20 20 20 20 19 18 18 19 20 20 21 21 22 22 22 23 23 23 23 22 22 22 22 21 21 21 21 21 21 20 20 20 20 19 19 19 18
16 19 20 20 20 20 20 20 19 19 19 18 18 19 20 21 21 21 21 22 22 22 22 23 23 23 22 22 22 21 21 21 21 20 20 21 20 20 20 20 19 19 18 18
14 16 18 19 19 19 19 19 18 18 18 18 18 19 19 20 21 21 21 22 22 22 22 22 22 22 22 22 21 21 21 21 21 20 20 20 20 20 20 19 19 19 18 18
14 17 18 18 19 19 19 19 18 17 17 17 18 18 18 20 20 21 21 21 21 21 21 21 21 21 21 21 21 20 20 20 20 20 20 20 20 20 19 19 19 18 18 18
14 16 16 17 17 19 19 18 18 17 17 17 17 18 19 19 20 20 20 21 21 21 21 21 21 21 20 20 20 20 20 20 20 20 20 20 19 19 19 18 18 18 18 17
13 15 16 16 17 17 16 17 17 17 18 18 18 18 19 19 19 19 19 20 20 20 20 20 20 20 20 20 20 20 20 20 20 19 19 19 19 19 18 18 18 17 17 17
13 14 14 15 15 16 16 16 17 17 18 18 18 18 18 18 18 19 19 19 19 19 19 19 19 19 19 19 19 19 19 19 19 19 19 18 18 18 18 18 17 17 17 16
12 13 14 15 15 16 17 17 17 17 18 18 18 18 18 18 18 18 18 18 18 18 19 19 19 19 19 19 18 18 18 18 18 18 18 18 17 17 17 17 17 17 16 16
12 13 14 15 15 16 16 17 17 17 17 17 17 17 17 17 17 17 17 17 17 18 18 18 18 18 18 18 18 18 18 18 17 17 17 17 17 17 17 16 16 16 16 15
12 13 12 14 15 16 16 16 16 17 17 17 17 17 17 17 17 17 17 17 17 17 17 17 17 17 17 17 17 17 17 17 16 16 16 16 16 16 16 15 15 15 15 15
14 14 14 14 15 15 15 16 16 16 16 16 16 16 16 16 16 16 17 16 16 16 16 16 16 16 16 16 16 16 16 16 16 16 16 15 15 15 15 15 15 14 14 14
14 14 14 14 14 15 15 15 15 15 15 15 15 15 16 16 16 16 16 16 16 16 16 16 15 16 16 16 16 16 16 15 15 15 15 15 15 14 14 14 14 14 14 14
14 14 14 14 14 14 14 15 14 14 14 14 15 15 15 15 15 15 15 15 15 15 15 15 15 15 15 15 15 15 15 15 15 14 14 14 14 14 14 13 13 13 13 13
13 13 13 13 13 13 13 13 13 13 14 14 14 14 14 14 14 15 15 15 15 15 15 15 15 15 15 15 14 14 14 14 14 14 14 13 13 13 13 13 13 13 13 13
12 12 12 12 12 12 13 13 13 13 13 13 13 13 13 13 14 14 14 14 14 14 14 14 14 14 14 14 14 14 14 14 13 13 13 13 13 13 13 13 12 12 12 12
12 12 12 12 12 12 12 12 12 12 13 13 13 13 13 13 13 13 14 14 14 14 14 13 13 13 13 13 13 13 13 13 13 13 13 12 12 12 12 12 12 12 11 11
12 12 12 12 12 12 12 12 12 12 12 12 12 12 13 13 13 13 13 13 13 13 13 13 13 13 13 13 13 13 13 13 13 12 12 12 12 12 12 11 11 11 11 11
12 12 12 12 12 12 12 12 12 12 12 12 12 12 12 12 12 12 12 12 12 12 12 12 12 12 12 12 12 12 12 12 12 12 12 12 11 11 11 11 11 10 10 10
12 12 12 12 12 12 12 12 12 12 12 12 12 11 11 12 12 12 12 12 12 12 12 12 12 12 12 12 12 11 11 11 11 11 11 11 11 11 10 10 10 10 10 9
11 11 11 12 12 12 12 12 12 12 11 11 11 11 11 11 11 11 11 11 11 11 11 11 11 11 11 11 11 11 11 11 11 10 10 10 10 10 10 10 9 9 9 9
11 11 11 11 11 11 12 12 12 11 11 11 11 11 11 11 11 11 11 11 11 11 11 11 11 11 11 11 10 10 10 10 10 10 9 9 9 9 9 9 8 8 8 8
11 11 11 11 11 11 11 11 11 11 11 11 11 11 11 11 11 11 11 10 10 10 10 10 10 10 10 10 10 10 9 9 9 9 9 8 8 8 8 8 8 8 7 7
11 11 11 11 11 11 11 11 11 11 10 10 10 10 10 10 10 10 10 10 10 10 10 10 10 10 10 9 9 9 9 9 8 8 8 8 8 7 7 7 7 7 7 7
10 10 10 10 10 10 10 10 10 10 10 10 10 10 10 10 10 10 9 10 10 10 9 9 9 9 9 9 9 8 8 8 8 8 8 7 7 7 7 7 7 6 6 6
10 10 10 10 10 10 10 10 10 10 10 10 10 10 9 9 9 9 9 9 9 9 9 9 9 8 8 8 8 8 8 8 7 7 7 7 7 7 6 6 6 6 6 6
Wind_Speed
5 5 3 4 5 7 7 8 9 8 8 8 7 6 5 3 3 5 4 4 5 5 5 5 6 6 6 6 7 8 8 8 8 7 6 6 5 5 4 4 5 4 4 3
2 2 2 3 4 6 6 4 5 4 6 5 3 2 2 3 4 4 4 4 5 5 5 6 6 6 6 6 7 8 8 8 7 6 6 6 5 5 4 4 3 3 4 4
3 3 1 4 5 6 4 3 6 7 7 2 0 2 4 4 4 5 5 5 5 5 6 6 6 6 6 6 6 7 7 7 6 6 6 5 5 4 4 4 4 4 4 4
1 1 5 7 2 4 4 2 3 3 3 3 3 3 3 3 4 4 4 3 4 4 4 4 4 5 5 5 6 6 5 4 5 6 6 5 5 5 5 4 4 4 4 4
3 3 4 5 2 3 4 2 1 3 2 1 1 3 2 1 2 3 3 2 3 3 3 3 4 5 7 6 5 6 6 5 5 6 5 5 5 5 5 4 4 4 3 4
4 4 6 6 4 2 4 3 2 3 4 3 4 2 3 2 0 1 1 1 2 2 2 2 2 4 6 6 5 5 5 5 5 6 6 6 6 5 4 4 4 4 3 3
4 4 6 5 5 1 5 6 3 3 4 5 4 4 3 1 1 1 2 2 3 4 3 2 2 4 5 5 5 5 4 4 4 5 6 6 5 4 3 3 3 2 2 1
4 4 6 4 2 2 4 2 1 2 2 3 3 2 2 2 2 3 3 3 4 4 3 2 2 4 4 4 4 3 4 3 3 3 3 4 4 4 4 4 3 2 1 1
6 6 4 2 2 3 2 1 2 1 2 3 3 2 2 2 2 2 3 3 3 4 4 2 2 3 4 3 2 3 3 3 3 3 3 4 5 5 4 3 3 3 2 2
2 4 3 4 3 3 1 1 2 1 2 3 3 2 2 2 1 1 2 2 3 3 3 2 2 2 3 2 2 3 3 3 3 3 3 2 2 3 3 3 3 3 3 3
3 4 4 4 3 4 3 2 3 2 2 2 3 3 3 2 2 2 1 1 2 2 2 2 1 1 1 2 3 3 3 2 2 2 3 3 2 1 1 2 3 4 4 4
7 6 4 5 4 3 2 2 2 1 2 2 1 2 2 1 1 2 2 2 1 1 1 1 1 1 0 1 3 3 2 2 2 2 2 3 3 2 4 1 0 2 3 3
7 6 6 6 5 4 2 2 1 0 0 1 2 0 1 1 1 1 1 2 1 1 1 0 0 1 1 1 2 3 3 3 2 3 3 3 3 3 1 2 3 2 1 2
6 4 3 5 4 3 1 1 1 1 0 0 0 0 1 0 0 1 1 1 1 1 0 0 0 2 2 1 2 2 3 3 3 3 3 3 3 3 3 3 1 1 1 0
4 5 5 3 3 2 1 1 1 1 1 1 1 1 2 2 1 1 1 1 1 1 0 0 0 2 2 1 2 3 3 3 3 3 3 3 3 2 2 2 2 1 1 1
2 2 3 3 3 2 1 1 1 2 2 2 2 2 1 2 2 1 1 2 2 1 1 1 1 2 1 1 2 2 2 3 3 3 2 2 2 2 2 2 1 1 1 1
1 2 3 3 3 3 3 3 3 3 3 2 2 2 2 2 1 1 1 1 2 1 1 1 1 2 1 1 2 2 2 2 3 3 2 2 2 2 2 2 2 1 1 1
2 4 4 3 3 3 3 2 2 2 2 2 2 2 3 3 3 2 1 1 2 2 2 2 2 1 0 1 1 2 2 2 2 2 2 2 2 2 2 2 2 2 1 1
1 1 1 2 2 2 2 2 2 1 1 1 2 2 3 3 2 2 2 2 2 1 3 3 3 1 1 1 2 2 2 2 2 1 2 3 2 2 2 2 2 1 1 0
1 0 0 1 1 1 2 2 2 1 1 2 2 2 1 1 2 2 2 1 1 1 1 2 2 2 1 2 2 2 2 2 2 1 2 2 1 1 1 1 1 1 1 1
1 1 1 1 1 1 1 1 2 2 2 2 3 3 2 1 2 2 3 1 2 2 2 3 2 2 2 2 3 2 2 2 2 1 1 2 2 1 1 1 1 1 1 1
2 1 1 1 1 1 1 1 1 2 2 2 3 3 3 2 2 2 1 1 1 1 2 2 1 1 2 3 2 2 2 2 2 2 1 1 1 1 1 1 0 0 0 0
1 1 1 1 1 1 2 2 2 2 3 3 4 3 3 2 2 2 0 1 1 2 2 1 2 2 3 3 3 3 3 3 2 2 2 1 1 1 1 1 0 0 0 1
1 2 2 2 3 4 3 2 3 3 3 2 2 3 3 2 1 1 2 1 3 3 3 2 3 3 4 3 3 3 3 3 2 2 2 2 2 2 1 1 1 1 1 2
1 2 2 3 3 2 2 3 4 4 4 3 3 2 2 2 2 2 2 3 5 5 3 4 5 5 4 4 4 3 3 3 3 2 3 2 2 2 1 1 1 1 1 1
2 2 1 2 2 2 3 3 3 3 3 3 3 3 3 3 4 4 4 4 6 6 4 4 4 5 4 4 4 4 3 3 3 3 3 2 2 2 1 1 1 1 1 1
3 3 3 3 2 2 3 3 3 2 2 3 3 3 3 4 4 5 5 5 5 5 4 4 4 4 4 4 4 4 3 3 3 3 3 2 2 2 2 2 1 1 1 1
Wind_Direction
231 244 211 210 212 192 191 187 185 213 218 239 238 223 218 207 169 148 155 159 165 177 178 173 174 176 176 177 176 174 173 184 197 196 190 190 191 196 194 192 199 193 185 192
286 265 223 243 231 204 209 191 199 200 237 255 252 175 163 167 154 159 173 178 181 181 180 177 179 180 175 177 177 171 176 190 190 184 185 188 193 192 189 189 190 185 192 197
246 287 38 252 234 199 187 193 179 203 228 233 165 186 181 183 173 181 188 184 182 184 186 187 184 176 176 182 171 169 180 184 181 179 184 188 189 185 192 196 195 200 209 207
175 96 212 242 246 161 165 205 198 192 208 192 203 210 181 161 172 188 192 185 182 179 183 187 173 158 156 152 150 154 168 179 175 175 186 183 180 191 201 200 201 208 217 213
142 184 260 287 251 172 171 241 221 171 161 133 80 67 28 51 145 182 191 195 184 181 176 166 158 151 140 139 145 154 170 177 178 180 184 185 191 200 201 196 200 206 214 205
144 166 218 242 283 291 137 246 261 168 162 146 100 121 256 303 145 154 132 144 140 120 97 111 133 134 136 145 151 170 187 190 181 176 179 188 192 193 192 190 197 193 209 207
173 209 254 268 295 4 163 233 258 191 172 157 163 197 223 236 130 133 113 111 118 113 112 132 132 126 137 149 173 186 175 172 177 180 185 189 179 167 158 165 173 177 194 225
159 190 242 311 12 160 215 274 224 168 156 147 140 115 104 111 113 107 96 98 109 118 117 118 123 132 152 177 186 170 153 155 168 173 179 171 159 159 155 153 159 165 172 245
189 212 252 314 260 261 237 252 286 183 133 129 117 111 102 108 108 110 113 112 113 130 131 126 131 149 164 197 177 155 144 162 167 167 170 164 163 162 157 160 167 176 186 220
253 273 288 305 306 312 316 282 302 202 137 120 127 135 123 118 111 111 111 119 122 125 138 154 167 170 184 187 154 140 155 170 164 156 149 146 152 162 165 172 177 184 198 217
250 265 312 319 319 325 340 5 22 35 60 99 131 147 156 152 161 159 143 124 139 149 168 202 186 168 182 156 140 143 154 158 157 154 146 131 116 118 160 207 204 197 205 202
234 233 220 260 287 308 323 333 352 47 17 3 138 175 166 173 184 169 160 148 134 142 170 253 210 189 181 165 156 157 162 167 165 156 142 135 126 79 48 53 78 181 192 192
231 233 230 255 283 292 289 304 315 35 268 302 324 244 182 229 246 177 147 151 172 200 212 285 318 287 270 203 169 173 184 184 169 162 157 156 157 159 153 32 41 58 131 175
213 195 244 262 264 277 283 298 23 30 3 228 303 263 174 180 280 166 185 198 194 173 129 110 124 286 274 193 163 177 179 177 172 170 168 173 182 184 183 183 208 329 357 62
224 209 221 245 257 279 289 85 61 325 307 316 276 212 188 181 210 234 224 148 126 110 79 92 317 296 303 174 157 167 170 172 168 162 165 173 175 179 182 183 192 225 301 339
229 210 213 225 245 265 247 198 223 272 280 276 253 230 205 184 190 184 158 136 132 171 246 231 269 285 286 155 152 157 165 160 156 151 156 169 178 182 183 184 195 228 265 276
207 245 226 230 254 261 242 232 227 244 259 246 226 200 162 147 145 148 142 159 165 188 216 217 277 294 277 172 157 159 151 150 145 147 167 180 184 184 182 187 200 231 271 278
217 229 228 227 244 249 247 245 244 254 250 246 211 168 163 174 188 197 174 99 65 26 357 334 319 321 325 130 143 145 141 148 159 165 167 172 175 177 178 183 198 216 266 328
268 237 241 262 248 224 219 223 243 257 247 199 177 180 184 187 189 172 118 90 75 357 332 346 351 2 59 95 107 127 133 135 131 137 153 154 157 172 176 186 203 213 199 160
346 327 286 321 329 202 204 205 196 204 206 173 154 140 123 136 147 128 104 82 303 264 307 19 28 38 51 76 93 119 122 116 110 107 109 123 140 156 177 188 195 196 177 172
332 334 349 7 352 333 220 193 181 192 188 159 152 154 155 151 130 120 110 55 332 3 52 58 55 58 59 68 80 97 99 99 96 97 125 143 144 151 179 196 194 185 181 198
340 336 328 345 32 19 25 87 142 167 160 145 145 150 141 131 103 88 97 195 244 57 73 67 59 67 71 76 86 91 89 88 90 96 99 112 132 149 152 129 126 126 289 295
345 320 359 27 54 60 53 63 85 123 142 146 147 152 156 154 141 133 117 324 87 79 75 78 78 68 68 76 79 77 74 77 83 87 84 85 92 95 92 75 52 19 337 347
18 22 30 57 84 83 68 54 71 88 100 112 134 145 146 128 81 85 137 107 73 73 76 75 62 56 69 80 81 82 80 78 75 73 70 70 70 66 65 57 37 33 34 26
35 43 54 77 86 91 91 84 79 75 77 74 67 71 91 114 124 110 98 96 87 82 78 67 67 70 77 85 88 89 84 79 80 83 83 79 69 57 54 60 50 40 27 2
47 50 69 112 123 120 108 100 94 84 87 83 68 66 74 83 96 96 94 92 88 87 86 80 75 74 79 81 82 81 78 72 67 69 77 78 74 63 45 42 36 14 352 346
43 57 70 68 70 100 112 110 107 98 99 106 94 76 83 89 89 86 87 87 84 84 81 76 78 82 84 83 81 78 75 70 67 67 65 59 51 46 33 18 8 6 355 333
Height
1470 1465 1465 1466 1466 1469 1472 1475 1482 1478 1475 1466 1462 1461 1460 1461 1462 1464 1466 1468 1470 1473 1475 1479 1483 1486 1489 1492 1495 1498 1500 1502 1504 1507 1509 1511 1513 1515 1516 1517 1518 1518 1519 1519
1470 1464 1464 1465 1462 1463 1465 1467 1469 1468 1469 1460 1459 1459 1460 1460 1461 1463 1464 1466 1469 1471 1474 1477 1480 1483 1486 1489 1492 1494 1497 1499 1502 1504 1507 1508 1510 1512 1513 1513 1514 1515 1515 1515
1479 1469 1465 1472 1462 1461 1462 1461 1463 1467 1463 1458 1459 1459 1459 1459 1461 1462 1463 1464 1467 1469 1471 1474 1477 1480 1482 1485 1488 1491 1494 1496 1498 1501 1503 1505 1507 1508 1509 1510 1511 1511 1511 1512
1483 1476 1483 1466 1453 1454 1457 1458 1457 1456 1456 1456 1456 1456 1457 1458 1459 1460 1462 1463 1465 1467 1469 1472 1475 1477 1480 1483 1485 1488 1491 1493 1494 1497 1500 1501 1503 1504 1505 1506 1507 1507 1508 1509
1487 1485 1476 1462 1454 1454 1457 1459 1455 1455 1455 1455 1455 1455 1458 1458 1459 1460 1462 1463 1465 1467 1468 1470 1472 1474 1477 1479 1482 1484 1487 1489 1491 1494 1496 1497 1499 1500 1501 1502 1503 1503 1504 1505
1483 1482 1481 1463 1451 1450 1454 1461 1453 1453 1453 1454 1455 1461 1460 1458 1458 1460 1461 1463 1464 1466 1468 1469 1471 1473 1475 1477 1479 1481 1484 1486 1488 1491 1492 1493 1495 1496 1497 1498 1499 1500 1501 1501
1480 1479 1470 1457 1451 1450 1463 1462 1452 1451 1452 1453 1454 1456 1457 1456 1458 1459 1460 1462 1463 1465 1467 1469 1470 1472 1473 1475 1477 1479 1481 1483 1486 1487 1488 1490 1491 1492 1493 1494 1495 1496 1497 1498
1478 1478 1473 1454 1452 1455 1456 1452 1451 1451 1451 1452 1452 1453 1455 1456 1457 1458 1459 1461 1462 1464 1466 1468 1470 1471 1472 1473 1475 1477 1478 1481 1482 1484 1485 1486 1487 1488 1489 1490 1491 1492 1493 1493
1468 1467 1458 1454 1454 1453 1452 1451 1451 1450 1451 1451 1452 1453 1454 1455 1456 1457 1459 1460 1461 1463 1465 1467 1469 1470 1470 1472 1473 1474 1475 1478 1480 1481 1482 1483 1484 1484 1485 1487 1488 1488 1489 1489
1463 1458 1455 1453 1452 1451 1450 1450 1451 1451 1450 1451 1452 1452 1453 1455 1456 1457 1458 1459 1460 1462 1463 1465 1467 1468 1469 1470 1471 1472 1473 1475 1476 1477 1478 1479 1480 1482 1482 1483 1484 1485 1486 1486
1460 1456 1454 1452 1451 1451 1451 1450 1450 1450 1451 1451 1452 1452 1453 1454 1455 1456 1457 1458 1459 1460 1461 1462 1464 1466 1467 1468 1469 1470 1471 1471 1473 1474 1475 1476 1477 1478 1479 1481 1482 1483 1483 1483
1456 1452 1453 1452 1451 1451 1451 1450 1450 1450 1450 1451 1452 1452 1452 1453 1454 1455 1455 1457 1458 1459 1460 1461 1462 1463 1465 1466 1467 1467 1468 1469 1470 1471 1472 1473 1474 1475 1476 1478 1479 1480 1480 1480
1448 1449 1449 1449 1449 1450 1449 1449 1449 1449 1449 1450 1451 1451 1452 1452 1453 1453 1454 1455 1456 1458 1459 1460 1461 1461 1463 1464 1465 1465 1465 1466 1467 1468 1469 1470 1471 1472 1473 1475 1476 1476 1476 1476
1444 1446 1446 1446 1447 1448 1448 1447 1447 1448 1448 1449 1449 1450 1451 1451 1452 1453 1453 1454 1455 1457 1458 1458 1459 1460 1460 1461 1462 1462 1462 1463 1464 1465 1466 1467 1469 1470 1471 1471 1472 1472 1473 1473
1441 1442 1443 1444 1444 1445 1445 1445 1445 1445 1446 1447 1448 1448 1449 1450 1450 1452 1453 1453 1454 1455 1456 1457 1457 1458 1458 1459 1459 1459 1460 1460 1461 1462 1464 1465 1466 1467 1468 1468 1469 1469 1469 1470
1439 1440 1441 1441 1442 1442 1443 1443 1443 1443 1443 1444 1445 1446 1447 1448 1449 1450 1452 1452 1452 1453 1454 1455 1455 1456 1456 1457 1457 1457 1457 1458 1459 1460 1461 1463 1464 1464 1465 1465 1466 1466 1466 1466
1437 1437 1438 1439 1439 1440 1440 1440 1441 1441 1441 1442 1442 1443 1444 1446 1447 1449 1450 1451 1452 1452 1453 1453 1453 1454 1454 1454 1455 1455 1455 1456 1457 1458 1459 1460 1461 1461 1461 1462 1462 1463 1463 1463
1435 1435 1435 1436 1436 1437 1437 1438 1438 1439 1439 1439 1440 1441 1442 1444 1445 1447 1448 1449 1450 1451 1452 1452 1452 1452 1452 1453 1453 1453 1453 1454 1454 1455 1456 1457 1458 1458 1458 1459 1459 1459 1459 1460
1433 1433 1434 1434 1435 1434 1435 1435 1436 1437 1437 1438 1439 1440 1441 1442 1444 1446 1447 1448 1449 1449 1450 1450 1450 1450 1450 1450 1451 1451 1451 1452 1452 1453 1453 1454 1454 1455 1455 1456 1456 1456 1456 1456
1433 1433 1433 1433 1433 1433 1433 1434 1435 1435 1436 1438 1438 1439 1440 1441 1443 1444 1446 1447 1448 1449 1449 1449 1449 1448 1448 1449 1449 1450 1450 1450 1450 1450 1451 1451 1451 1452 1453 1453 1453 1453 1453 1453
1432 1432 1432 1432 1432 1433 1433 1433 1434 1434 1435 1436 1437 1438 1439 1441 1442 1443 1444 1446 1447 1448 1448 1448 1448 1448 1448 1448 1448 1448 1448 1448 1448 1448 1448 1449 1449 1450 1450 1451 1450 1450 1450 1449
1431 1431 1431 1431 1431 1432 1432 1433 1433 1434 1435 1435 1436 1437 1439 1440 1442 1443 1444 1445 1446 1447 1447 1447 1447 1447 1447 1447 1447 1447 1446 1447 1447 1447 1447 1447 1447 1447 1447 1447 1447 1447 1447 1447
1431 1431 1431 1431 1431 1431 1432 1432 1433 1433 1434 1434 1435 1437 1438 1440 1441 1442 1443 1445 1445 1445 1446 1446 1447 1447 1446 1446 1445 1445 1446 1446 1446 1446 1445 1445 1445 1445 1445 1444 1444 1444 1444 1443
1431 1431 1431 1431 1431 1432 1432 1432 1433 1434 1435 1435 1436 1437 1438 1439 1440 1442 1442 1443 1444 1445 1445 1446 1446 1446 1446 1445 1445 1445 1445 1445 1444 1444 1444 1444 1443 1443 1443 1442 1441 1441 1440 1440
1431 1431 1431 1431 1431 1432 1433 1433 1434 1434 1435 1436 1437 1438 1439 1440 1440 1441 1442 1443 1443 1444 1445 1445 1445 1445 1445 1445 1445 1444 1444 1444 1443 1443 1442 1442 1442 1442 1441 1440 1439 1439 1439 1439
1432 1432 1432 1432 1432 1433 1434 1434 1435 1436 1436 1437 1438 1439 1440 1441 1441 1442 1442 1443 1444 1445 1445 1445 1445 1445 1445 1444 1444 1444 1444 1443 1442 1442 1441 1441 1441 1441 1440 1439 1439 1438 1438 1437
1433 1433 1433 1433 1434 1435 1435 1436 1437 1437 1438 1438 1439 1440 1441 1442 1442 1443 1443 1445 1445 1445 1445 1446 1446 1445 1445 1445 1445 1444 1444 1444 1443 1442 1442 1441 1441 1440 1439 1438 1438 1437 1436 1436